Weather History for KTDZ - February, 2013

Change the Weather History Date:

Wednesday, February 6, 2013

  Actual Average (KTOL) Record (KTOL)
Temperature  
Mean Temperature 20 °F 26 °F  
Max Temperature 28 °F 34 °F 61 °F (1938)
Min Temperature 12 °F 19 °F -6 °F (2014)
Degree Days  
Heating Degree Days 45 39  
Month to date heating degree days 234  
Since 1 July heating degree days 3783  
Cooling Degree Days 0 0  
Month to date cooling degree days 0  
Year to date cooling degree days 0  
Moisture  
Dew Point 15 °F    
Average Humidity 68    
Maximum Humidity 85    
Minimum Humidity 53    
Precipitation  
Precipitation 0.00 in 0.07 in - ()
Month to date precipitation 0.40  
Year to date precipitation 2.45  
Snow  
Snow 0.00 in 0.30 in - ()
Month to date snowfall 2.2  
Since 1 July snowfall 23.3  
Snow Depth -    
Sea Level Pressure  
Sea Level Pressure 30.23 in    
Wind  
Wind Speed 8 mph (WSW)    
Max Wind Speed 15 mph    
Max Gust Speed 20 mph    
Visibility 10 miles    
Events      
T = Trace of Precipitation, MM = Missing Value Source: NWS Daily Summary

Daily Weather History Graph

Daily Weather History Graph

Search for Another Location

Airport or City:

Trip Planner

Search our weather history database for the weather conditions in past years. The results will help you decide how hot, cold, wet, or windy it might be!

Date:

Astronomy

Feb. 06, 2013 Rise Set
Actual Time 7:40 AM EST 5:56 PM EST
Civil Twilight 7:11 AM EST 6:25 PM EST
Nautical Twilight 6:38 AM EST 6:58 PM EST
Astronomical Twilight 6:05 AM EST 7:30 PM EST
Moon 4:24 AM EST (2/6) 2:12 PM EST (2/6)
Length of Visible Light 11h 14m
Length of Day
10h 16m
Waning Crescent, 17% of the Moon is Illuminated
Feb 6
Waning Crescent
Feb 10
New
Feb 17
First Quarter
Feb 25
Full
Mar 4
Last Quarter

Hourly Weather History & Observations

Time (EST) Temp. Windchill Dew Point Humidity Pressure Visibility Wind Dir Wind Speed Gust Speed Precip Events Conditions
12:53 AM 28.9 °F 21.9 °F 25.0 °F 85% 30.01 in 5.0 mi West 6.9 mph - N/A   Overcast
1:53 AM 28.9 °F 17.7 °F 21.9 °F 75% 30.06 in 10.0 mi NW 15.0 mph - N/A   Overcast
2:14 AM 28.4 °F 17.0 °F 19.4 °F 69% 30.04 in 10.0 mi NW 15.0 mph - N/A   Overcast
2:53 AM 28.0 °F 19.3 °F 19.9 °F 72% 30.08 in 10.0 mi NW 9.2 mph - N/A   Overcast
3:32 AM 28.4 °F 17.5 °F 19.4 °F 69% 30.08 in 10.0 mi NW 13.8 mph 19.6 mph N/A   Overcast
3:53 AM 28.0 °F 17.5 °F 19.0 °F 69% 30.11 in 10.0 mi NNW 12.7 mph - N/A   Overcast
4:46 AM 24.8 °F 13.4 °F 15.8 °F 69% 30.12 in 10.0 mi NW 12.7 mph - N/A   Overcast
4:53 AM 25.0 °F 13.6 °F 14.0 °F 63% 30.15 in 10.0 mi NW 12.7 mph - N/A   Overcast
5:53 AM 21.9 °F 11.7 °F 12.0 °F 66% 30.18 in 10.0 mi NW 9.2 mph - N/A   Mostly Cloudy
6:53 AM 14.0 °F 3.9 °F 8.1 °F 77% 30.22 in 10.0 mi WNW 6.9 mph - N/A   Partly Cloudy
7:53 AM 12.9 °F - 8.1 °F 81% 30.26 in 10.0 mi Calm Calm - N/A   Clear
8:53 AM 16.0 °F - 10.0 °F 77% 30.29 in 10.0 mi Calm Calm - N/A   Clear
10:53 AM 24.1 °F - 14.0 °F 65% 30.30 in 10.0 mi Calm Calm - N/A   Clear
11:53 AM 26.1 °F 21.9 °F 14.0 °F 60% 30.30 in 10.0 mi SSE 3.5 mph - N/A   Clear
12:53 PM 27.0 °F - 14.0 °F 58% 30.30 in 10.0 mi Calm Calm - N/A   Clear
1:53 PM 28.0 °F 21.7 °F 12.9 °F 53% 30.30 in 10.0 mi SW 5.8 mph - N/A   Clear
2:53 PM 28.0 °F 20.8 °F 14.0 °F 56% 30.29 in 10.0 mi South 6.9 mph - N/A   Clear
3:53 PM 28.0 °F 21.7 °F 14.0 °F 56% 30.30 in 10.0 mi South 5.8 mph - N/A   Clear
4:53 PM 27.0 °F 18.7 °F 14.0 °F 58% 30.31 in 10.0 mi South 8.1 mph - N/A   Clear
5:53 PM 25.0 °F 18.1 °F 12.9 °F 60% 30.31 in 10.0 mi SSW 5.8 mph - N/A   Clear
6:53 PM 21.0 °F 16.2 °F 12.0 °F 68% 30.33 in 10.0 mi SSE 3.5 mph - N/A   Clear
7:53 PM 19.9 °F - 12.0 °F 71% 30.35 in 10.0 mi Calm Calm - N/A   Clear
8:53 PM 19.9 °F 13.4 °F 12.0 °F 71% 30.33 in 10.0 mi East 4.6 mph - N/A   Clear
9:53 PM 23.0 °F 18.4 °F 14.0 °F 68% 30.32 in 10.0 mi SSE 3.5 mph - N/A   Clear
10:53 PM 21.0 °F 10.6 °F 12.9 °F 71% 30.27 in 10.0 mi ESE 9.2 mph - N/A   Partly Cloudy
11:53 PM 21.9 °F 14.5 °F 14.0 °F 72% 30.27 in 10.0 mi ESE 5.8 mph - N/A   Scattered Clouds